GFSFLT1_850_spd_126.txt.gz
Wind_Speed
13 11 9 9 10 12 14 17 20 20 21 27 33 35 35 36 35 30 25 25 25 46 49 39 38 36 37 38 37 34 33 33
14 13 13 15 15 18 20 21 23 26 27 30 37 44 47 44 42 41 33 28 33 33 29 41 51 35 41 44 39 36 38 38
19 20 19 20 23 24 25 24 26 28 31 30 31 38 44 45 40 39 39 36 30 30 26 26 52 47 43 42 40 39 41 41
26 28 29 28 28 29 30 30 29 29 31 34 35 35 41 46 43 40 42 41 38 30 29 23 31 52 49 48 45 41 39 43
28 31 33 35 33 31 31 31 32 31 29 33 34 37 40 43 47 44 41 43 43 38 32 25 24 32 50 50 46 44 48 50
28 30 32 32 33 33 33 31 31 31 32 30 35 36 38 41 45 47 45 43 44 43 39 33 27 30 38 48 51 56 52 57
27 28 29 30 30 31 32 33 31 31 31 31 31 34 34 37 40 44 46 45 43 44 42 40 36 30 35 41 47 54 52 53
28 31 31 31 32 34 33 34 34 33 33 32 30 30 31 32 34 38 41 43 42 41 40 40 42 39 37 37 41 50 57 57
27 28 29 30 31 31 31 33 33 33 33 31 28 26 26 27 29 30 34 37 39 35 36 38 39 41 41 36 34 36 46 50
25 25 25 25 27 28 29 29 29 30 29 28 26 24 23 24 25 25 27 29 31 31 32 35 37 37 40 43 38 33 37 40
23 23 23 24 25 26 27 26 27 27 26 26 25 23 21 20 22 23 24 24 25 30 31 32 34 36 37 38 40 37 37 36
20 21 22 23 23 25 27 27 28 28 27 27 25 22 18 15 17 15 17 19 19 24 22 23 28 31 32 33 37 34 34 30
17 19 21 24 25 26 28 28 28 27 26 28 29 25 19 16 14 12 9 9 9 11 16 19 23 29 32 31 34 30 33 31
15 18 21 25 27 27 26 27 27 26 26 29 32 33 27 25 23 21 18 14 12 7 7 12 16 21 22 26 28 31 26 25
13 18 21 22 25 24 26 27 27 27 29 31 34 37 35 31 32 34 32 32 30 26 21 15 7 2 9 18 21 21 19 25
13 16 18 19 21 23 25 27 27 28 30 32 35 37 39 39 38 36 40 37 38 39 38 34 26 8 9 2 8 15 13 14
10 14 17 19 20 22 25 27 28 28 30 32 33 37 39 42 44 44 44 44 43 43 46 47 46 43 32 20 17 13 9 10
9 13 16 17 19 21 25 28 29 30 32 33 32 34 35 39 39 41 43 45 44 46 46 46 47 45 40 40 38 37 38 33
10 12 14 15 16 19 23 26 30 32 33 34 33 34 36 38 38 39 39 39 40 42 44 44 44 43 40 40 38 38 37 36

GFSFLT1_850_spd_129.txt.gz
Wind_Speed
12 13 14 16 16 18 19 21 23 22 21 21 24 26 25 25 27 29 30 30 32 31 31 29 51 67 35 42 44 43 41 36
14 17 19 20 21 22 23 24 25 26 29 29 28 29 34 34 36 36 33 33 33 34 29 26 36 51 55 31 43 43 42 39
21 22 22 22 23 24 25 27 27 28 30 30 32 35 35 38 41 42 39 35 35 35 30 29 28 36 57 58 41 38 38 42
26 28 28 27 27 27 28 29 30 31 32 35 34 35 40 38 39 45 42 37 33 37 35 33 27 30 35 55 50 45 39 42
24 27 29 30 31 31 31 30 28 29 29 31 35 37 40 42 40 39 45 39 36 34 38 33 33 30 31 40 66 60 44 41
25 26 28 28 29 30 32 32 32 32 31 31 34 38 37 39 40 39 40 41 38 35 34 35 34 34 30 24 49 73 51 56
23 25 27 29 31 33 33 32 32 31 31 30 31 33 35 36 37 37 34 36 36 34 32 33 33 35 33 31 24 50 59 51
24 28 30 32 34 34 32 32 33 33 32 32 30 31 31 31 32 32 32 33 34 32 29 28 29 33 36 35 36 41 42 39
22 25 27 29 30 30 30 31 32 32 31 30 29 28 27 26 26 27 29 29 28 26 25 25 26 27 32 37 40 39 36 36
21 22 24 26 26 26 25 28 28 28 28 27 26 26 25 23 22 23 26 25 24 24 23 26 24 23 25 30 37 39 38 39
17 19 21 22 23 23 23 25 27 26 24 23 22 23 23 20 20 21 20 21 21 21 21 23 18 18 20 23 26 31 37 36
15 16 17 20 21 22 23 25 27 27 25 22 22 26 21 17 15 13 13 13 14 13 12 11 6 11 14 19 21 22 27 29
13 14 16 19 21 23 25 25 27 27 25 21 21 25 23 19 18 16 17 16 14 12 10 7 5 7 11 15 19 20 19 20
9 12 15 18 21 23 23 25 25 25 27 24 22 25 28 27 26 26 25 24 24 20 18 14 11 6 5 9 12 14 17 22
8 11 13 16 19 20 21 23 23 24 27 27 28 29 29 31 31 33 37 36 35 34 31 29 24 18 11 6 2 10 11 14
7 10 12 16 18 19 20 22 24 24 26 27 30 32 33 35 38 38 40 42 43 43 40 39 37 32 27 20 14 11 10 9
5 8 11 15 17 19 21 22 24 25 28 29 28 29 31 34 36 38 40 43 44 44 45 44 43 44 34 32 27 25 18 16
4 7 10 12 15 18 20 22 23 24 26 27 29 31 33 34 35 35 36 38 39 42 43 44 43 40 37 37 39 37 35 31
7 8 9 10 11 14 17 20 22 24 25 26 27 28 30 31 33 35 37 38 39 40 41 39 39 38 34 35 35 37 38 37

GFSFLT1_850_spd_132.txt.gz
Wind_Speed
14 16 17 18 19 21 22 23 24 24 23 22 21 23 24 23 23 24 25 26 26 26 28 26 25 34 39 32 44 24 29 35
15 17 19 19 20 22 25 26 27 28 30 31 27 26 28 29 30 30 32 31 30 29 30 31 27 30 32 25 39 55 46 38
17 19 20 21 22 23 23 25 27 29 31 32 34 37 33 31 33 35 35 36 35 35 33 34 31 31 31 34 28 39 64 65
21 22 24 25 27 29 29 28 28 28 30 33 34 35 38 37 34 34 34 37 37 35 34 34 36 30 33 31 31 36 44 54
21 24 25 27 28 28 29 29 29 30 28 30 32 34 37 38 38 38 37 31 35 34 33 32 35 34 34 37 33 33 45 54
22 24 25 26 29 31 31 30 31 30 29 28 30 32 33 36 37 36 35 35 30 30 30 28 32 35 34 38 37 27 43 59
20 22 26 28 30 31 31 31 31 31 30 29 29 28 29 31 32 32 32 31 27 27 28 27 28 33 33 35 39 37 32 48
21 23 27 28 30 30 30 31 31 31 31 30 28 26 26 27 28 27 27 27 26 25 25 24 26 28 32 33 37 35 33 40
18 20 23 25 27 28 29 30 32 32 32 30 27 24 24 25 25 24 23 23 24 24 25 24 22 24 27 29 35 41 40 37
15 16 19 22 24 25 27 28 30 31 29 27 25 22 23 23 22 20 19 19 20 20 22 23 22 25 24 24 27 33 40 42
11 13 16 18 20 22 24 26 29 31 30 25 23 21 23 19 17 15 14 15 15 14 14 14 16 14 13 16 19 24 30 35
9 11 13 16 18 21 24 26 29 31 29 25 22 21 21 18 16 16 14 16 15 12 11 7 4 4 6 9 12 14 17 22
7 9 11 14 17 19 22 25 26 27 27 26 22 22 21 22 22 21 22 23 24 20 17 13 8 3 3 7 9 11 11 12
4 6 10 13 15 18 20 22 23 22 24 27 26 25 26 28 30 30 30 31 32 29 26 24 18 14 8 5 4 7 10 13
3 6 9 12 15 16 18 19 21 23 23 25 26 26 28 29 32 36 37 37 40 38 37 35 30 24 19 15 12 12 10 7
2 5 8 11 13 15 16 18 19 22 25 27 28 26 27 29 32 35 36 39 42 42 42 43 42 39 32 26 23 23 20 18
2 4 7 10 13 15 17 17 19 21 23 25 25 26 28 30 30 32 34 37 40 40 43 43 44 44 37 35 31 32 32 29
5 5 6 9 11 13 15 16 17 19 21 23 24 25 27 29 30 33 35 37 38 40 40 40 41 39 38 39 37 36 36 38
8 7 7 8 8 10 12 13 16 19 22 23 23 24 26 26 29 32 34 36 37 38 40 39 41 41 37 33 33 34 35 35

GFSFLT1_850_spd_135.txt.gz
Wind_Speed
14 15 16 17 17 18 19 21 22 23 25 24 22 23 25 27 27 27 27 27 27 29 30 30 28 28 25 24 25 25 22 48
13 15 17 18 19 21 23 25 26 28 29 30 32 32 28 27 30 32 32 31 31 31 32 32 33 32 29 26 27 27 23 26
13 15 18 20 22 24 25 26 28 29 31 32 32 33 35 38 34 32 34 33 34 34 34 34 34 35 34 28 28 29 31 34
15 17 20 21 23 24 26 27 27 28 29 30 31 32 32 33 34 37 34 33 33 34 34 35 34 36 36 34 31 33 33 36
14 18 20 22 24 26 28 28 29 29 29 29 29 30 32 32 35 36 36 34 33 31 32 33 34 35 37 38 35 35 36 36
14 16 19 22 26 28 30 29 29 29 30 29 27 26 26 28 31 33 33 32 30 31 28 28 29 30 34 37 40 36 37 41
13 15 19 22 25 27 28 28 27 29 30 28 26 25 26 27 28 30 29 28 28 27 26 24 27 28 29 34 38 40 37 39
12 16 19 21 23 25 26 26 28 31 31 27 25 23 23 25 26 27 27 26 26 27 25 26 26 27 30 31 36 39 38 38
11 14 16 18 20 22 24 26 29 32 33 29 24 23 23 23 22 23 21 23 24 25 25 24 25 27 28 29 33 34 34 38
9 11 13 16 18 20 22 25 28 32 34 29 24 23 21 21 20 18 18 18 21 21 20 21 22 24 23 27 26 26 28 31
7 9 11 13 16 18 19 22 25 28 31 27 24 22 20 18 17 16 15 16 19 17 16 14 13 12 13 13 17 17 18 23
5 7 9 11 13 15 18 21 22 23 26 26 25 23 21 18 18 18 18 18 20 20 18 14 8 4 2 1 4 10 5 8
3 4 6 9 11 14 18 19 21 20 20 22 23 22 22 22 23 24 24 25 25 25 25 20 16 12 8 2 3 5 9 12
2 1 3 7 10 13 14 17 20 21 19 18 20 22 24 25 26 29 31 32 33 33 33 31 27 24 20 17 13 10 6 5
4 1 2 6 10 11 12 15 17 19 20 23 23 23 23 24 26 29 32 34 38 40 40 39 36 32 29 27 23 21 20 17
7 4 4 6 7 9 10 13 15 17 19 21 24 24 23 23 24 25 28 32 35 38 39 41 41 40 36 32 32 30 29 26
8 6 6 6 7 8 10 13 14 15 17 20 21 22 22 23 24 26 29 31 33 34 37 38 39 40 36 35 33 34 34 34
11 8 7 7 7 9 10 13 13 14 17 19 20 21 22 25 26 27 29 32 32 35 37 39 39 36 33 32 33 33 33 36
13 11 9 7 7 8 10 12 13 15 18 20 20 21 23 25 26 30 31 32 34 35 38 37 38 38 35 34 34 34 34 33

GFSFLT1_850_spd_138.txt.gz
Wind_Speed
5 7 9 11 13 15 16 19 21 22 23 24 24 22 24 27 27 28 29 29 30 29 30 31 32 31 30 27 30 25 25 26
4 7 9 11 13 16 19 21 23 25 24 26 26 25 26 25 26 29 30 31 30 31 31 31 31 31 31 28 25 27 30 25
5 7 9 12 14 16 18 21 22 24 23 25 24 24 24 26 25 26 29 29 31 30 30 31 30 29 30 29 28 25 25 22
4 7 9 11 14 17 21 22 23 23 26 24 24 24 21 20 21 23 22 27 29 29 28 28 30 29 28 27 24 24 26 25
4 7 9 12 15 17 22 23 23 24 26 24 23 22 23 23 23 24 26 26 27 27 27 26 27 25 25 26 24 24 24 29
3 6 9 11 14 17 20 21 20 22 24 24 22 21 22 22 22 24 25 23 23 23 22 24 27 26 24 22 24 23 24 27
3 5 8 10 13 16 18 19 20 23 26 26 21 21 22 23 23 23 21 23 21 20 20 22 22 24 24 24 25 28 27 27
3 5 7 10 12 14 16 18 19 22 25 24 21 20 21 21 22 22 24 22 22 23 24 23 24 24 23 23 24 26 30 36
3 5 7 9 11 13 15 16 18 22 24 23 20 20 19 18 19 20 19 20 22 24 25 22 22 22 22 26 28 28 28 32
1 4 6 8 9 12 14 16 18 22 22 23 22 21 21 18 17 16 17 17 20 20 20 19 18 16 17 18 23 26 26 25
2 2 4 6 8 11 13 16 19 19 20 23 23 23 22 20 17 18 17 17 18 18 18 15 11 9 5 6 10 10 17 16
7 4 3 5 7 9 12 15 16 17 18 20 20 21 21 21 21 19 19 19 19 22 20 15 13 9 3 6 1 4 9 11
6 3 2 3 5 7 10 11 13 16 17 16 16 18 19 20 22 23 23 25 26 27 27 22 19 18 14 12 13 11 7 5
6 4 3 1 3 5 7 9 11 14 16 17 18 19 19 19 21 23 26 28 31 31 32 30 28 25 24 22 19 18 17 15
8 6 5 4 1 4 6 8 10 12 15 16 17 19 20 21 20 21 23 26 30 32 33 34 33 32 30 28 26 26 25 23
11 9 7 4 1 3 5 7 8 12 13 14 16 18 18 18 20 22 23 27 28 30 31 33 35 36 35 34 34 32 32 31
13 11 9 6 4 4 4 5 6 11 11 13 15 17 16 18 19 23 23 26 29 30 34 35 35 34 33 33 34 36 35 35
15 13 11 9 7 6 5 6 7 9 10 13 15 16 17 18 20 21 23 27 28 31 32 33 34 33 31 32 32 33 34 35
16 14 12 11 9 7 7 6 7 9 9 12 15 15 17 17 19 21 23 25 28 30 32 33 32 33 30 29 31 32 34 35